Погода в Одессе

Погода в Одессе : погода сейчас, прогноз погоды и архив. Всё, что Вы хотите узнать о погоде в Одессе!

Хотите узнать прогноз погоды в Одессе? Тогда Вам сюда: Погода в Одессе

Поиск расширенной информации на нашем сайте:

Другие новости

Новости СМИ2

Главная страница сайта

Новости сайта

03.07.2017

Напоминаем, что на нашем специализированном сайте Метеоцентр.Азия вы можете получить высокодетализированные автоматические прогнозы погоды по пунктам России, СНГ и мира в авиационном формате (включающие направление и скорость ветра, видимость, явления погоды, количество и форму облачности, нижнюю и верхнюю границу облачности).


Погода в Одессе - сегодня

Время (UTC), дата Ветер
(°,м/с) 
Видим.   Явления Облачность Т
(°С)
Тd
(°С)
f(%) Тe
(°С)
Pmin
(гПа)
dP
(гПа)
Po
(мм)
O2
(г/м3)
Тmin Tmax R s Состояние
почвы
00 19.11.17 080 (В) 0500 м  слаб. дождь{морось}  ?/?  
+8.1 +7.5 96 +8  1013.3  -1.5  756  295           
03 19.11.17 080 (В) 0200 м  дождь{туман}  ?/?  
+8.7 +8.3 97 +9  1011.3  -2  755  293           
06 19.11.17 340 (С) 2600 м  дождь{туман}  10/10 200 м 
[Frnb|Ns]
+7.7 +7.3 97 +8  1010.8  -0.5  754  294  +7.1       
09 19.11.17 320 (СЗ) 6000 м  слаб. дождь  10/8 200 м средняя 
[Frnb|As op]
+7.6 +7.2 97 +9  1010.2  -0.6  754  294           
12 19.11.17 340 (С) 6000 м  дымка{дождь}  10/6 360 м средняя 
[St|Ac und]
+8 +7.6 97 +9  1009.4  -0.8  753  294           
15 19.11.17 330 (СЗ) 18000 м  слаб. ливневой дождь  10/6 600 м кучево-дожд., средняя 
[Cb calv|Ac und]
+7.5 +6.9 96 +7  1009.6  0.2  753  294           
18 19.11.17 340 (С) 11000 м  {ливн. осадки}  10/4 300 м средняя 
[Sc diur, vesp|Ac und]
+7.1 +6.4 95 +7  1009.9  0.3  754  295    +8.2     
21 19.11.17 350 (С) 7000 м  слаб. морось  10/10 300 м 
[St]
+6.7 +5.6 93 +6  1010.3  0.3  754  296           
00 20.11.17 350 (С) 3600 м  дымка{морось}  10/4 300 м средняя 
[St|Ac und]
+6.2 +5.3 94 +6  1009.8  -0.5  753  296      0.0     
03 20.11.17 360 (С) 6000 м  дымка  10/0 средняя 
[Ac und]
+5.6 +4.2 91 +4  1009.1  -0.7  753  297           
06 20.11.17 340 (С) 7000 м  дымка  10/4 300 м средняя 
[St|Ac und]
+4.3 +3.1 92 +3  1009.2  0.1  753  298  +4.3    0.0     
09 20.11.17 340 (С) 9000 м  дымка  10/4 300 м средняя 
[St|Ac und]
+5.5 +3.5 87 +4  1009.1  -0.1  753  297           
12 20.11.17 340 (С) 14000 м    10/4 300 м средняя, верхняя 
[St|Ac trans|Ci fib]
+6.3 +2.9 79 +5  1008.6  -0.5  753  296           
15 20.11.17 340 (С) 25000 м    10/0 средняя, верхняя 
[Ac und|Ci fib]
+5.3 +0.5 71 +4  1009  0.4  753  297           
18 20.11.17 350 (С) 30000 м    10/0 средняя, верхняя 
[Ac trans|Ci fib]
+3.8 +0.1 77 +3  1010  754  299           
21 20.11.17 340 (С) 19000 м    10/0 средняя, верхняя 
[Ac trans|Ci]
+3.2 -1 74 +1  1010.2  0.2  754  300           
00 21.11.17 330 (СЗ) 15000 м    10/0 средняя, верхняя 
[Ac trans|Ci sp]
+3.3 -0.5 76 +1  1011.2  755  300           
03 21.11.17 310 (СЗ) 27000 м    9/0 верхняя 
[Ci fib]
+3.1 -0.4 78 +2  1011.9  0.7  755  301           
06 21.11.17 300 (СЗ) 15000 м    8/3 600 м средняя, верхняя 
[Sc|Ac trans|Ci fib]
+0.7 -1.5 85 1013  756  304  +0.7         
09 21.11.17 320 (СЗ) 45000 м    8/6 1000 м верхняя 
[Sc|Ci fib]
+3.9 -2.4 63 +3  1013.4  0.5  756  301           
12 21.11.17 320 (СЗ) 40000 м    8/6 1110 м средняя, верхняя 
[Sc|Ac trans|Ci fib]
+5.2 -3.4 54 +4  1012.9  -0.5  756  299           
15 21.11.17 310 (СЗ) 29000 м    6/6 1000 м 
[Sc]
+3.7 -3 62 +3  1014.1  1.2  757  301           
18 21.11.17 310 (СЗ) 23000 м    ясно 
+2.3 -2.2 72 +2  1015.1  0.9  757  303           
21 21.11.17 290 (З) 11000 м    ясно 
-0.3 -2.4 86 -1  1015.9  0.8  758  306           
00 22.11.17 270 (З) 9000 м  дымка  ясно 
-1.1 -2.8 88 -2  1016.4  0.5  758  307           
Время (UTC), дата Ветер
(°,м/с) 
Видим.   Явления Облачность Т
(°С)
Тd
(°С)
f(%) Тe
(°С)
Pmin
(гПа)
dP
(гПа)
Po
(мм)
O2
(г/м3)
Тmin Tmax R s Состояние
почвы

Для получения пояснительной информации подведите курсор к названию столбца.

ПОГОДА в Одессе - архив

Всё, что Вы хотите узнать о погоде в Одессе - удобно и подробно!

Выберите нужную дату (начиная с 1 января 2015* года) и нажмите кнопку "Найти".
Будут отображены архивные сводки погоды по пункту Одесса, начиная с указанной даты.


Отображать данные в формате CSV (для использования в таблицах Excel)


Внимание! Наш архив погоды предназначен исключительно для личного некоммерческого использования в познавательных целях. Если Вам необходимы официальные справки о состоянии погоды (для производственных, юридических, коммерческих и т.п. целей), обращайтесь в органы Росгидромета.

*Примечание: данная дата относится к архиву по метеостанциям СССР (Россия, СНГ, Балтия).
Архив по метеостанциям Зарубежной Европы и Азии (кроме Китая) хранится 10 дней, по другим регионам земного шара (Китай, Африка, Америка, Австралия, Океания) - 1 день.

Одесса - район местоположения метеостанции


Название, широта, долгота, высота метеостанции:
Одесса (город) 46.4°ш. 30.8°д. 42 м над ур. моря [Украина]

Дополнительная информация

В oтличие oт бoльшинства пoгoдных сайтoв мы публикуем пoдрoбную метеoинфoрмацию в детальнoм прoфессиoнальнoм фoрмате.

Характеристики температуры и влажнoсти вoздуха измеряются на высoте 2 м в тени вдали oт зданий и деревьев.
Скoрoсть ветра измеряется на высoте 10 м (на урoвне рoста челoвека скoрoсть ветра ниже в 1.5-2 раза). Если метеoстанция нахoдится в гoрoде или в лесу, тo скoрoсть ветра занижена на 2-4 м/с пo сравнению с oткрытым местoм. Скoрoсть ветра над акватoриями крупных рек и oзёр, а также на вершинах хoлмoв на 2-5 м/с выше, чем в oбычных услoвиях.
Атмoсфернoе давление в разных тoчках местнoсти мoжет значительнo oтличаться oт давления на метеoстанции, в зависимoсти oт услoвий рельефа (при пoдъёме на 10 м давление пoнижается примернo на 1 мм рт.ст.).